Change the Weather History Date:

Friday, June 27, 2014

  Actual Average Record
Temperature  
Mean Temperature 85 °F -  
Max Temperature 95 °F 91 °F 103 °F (1952)
Min Temperature 75 °F 71 °F 65 °F (1979)
Cooling Degree Days 20    
Growing Degree Days 35 (Base 50)    
Moisture  
Dew Point 69 °F    
Average Humidity 65    
Maximum Humidity 89    
Minimum Humidity 34    
Precipitation  
Precipitation 0.00 in - - ()
Sea Level Pressure  
Sea Level Pressure 30.04 in    
Wind  
Wind Speed 3 mph (West)    
Max Wind Speed 16 mph    
Max Gust Speed 21 mph    
Visibility 10 miles    
Events Thunderstorm    
Averages and records for this station are not official NWS values.
T = Trace of Precipitation, MM = Missing Value Source: NWS Daily Summary

Daily Weather History Graph

Daily Weather History Graph

Search for Another Location

Airport or City:

Trip Planner

Search our weather history database for the weather conditions in past years. The results will help you decide how hot, cold, wet, or windy it might be!

Date:

Astronomy

Jun. 27, 2014 Rise Set
Actual Time 6:23 AM EDT 8:34 PM EDT
Civil Twilight 5:55 AM EDT 9:01 PM EDT
Nautical Twilight 5:21 AM EDT 9:35 PM EDT
Astronomical Twilight 4:45 AM EDT 10:12 PM EDT
Moon 6:47 AM EDT (6/27) 8:45 PM EDT (6/27)
Length of Visible Light 15h 06m
Length of Day
14h 10m
New Moon, 0% of the Moon is Illuminated
Jun 27
New Moon
Jul 5
First Quarter
Jul 12
Full
Jul 18
Last Quarter
Jul 26
New

Hourly Weather History & Observations

Time (EDT) Temp. Heat Index Dew Point Humidity Pressure Visibility Wind Dir Wind Speed Gust Speed Precip Events Conditions
12:10 AM 77.0 °F - 71.6 °F 83% 30.05 in 10.0 mi Calm Calm - N/A   Clear
12:30 AM 77.0 °F - 71.6 °F 83% 30.04 in 10.0 mi Calm Calm - N/A   Clear
12:50 AM 75.2 °F - 71.6 °F 89% 30.04 in 10.0 mi Calm Calm - N/A   Clear
1:10 AM 75.2 °F - 71.6 °F 89% 30.05 in 10.0 mi Calm Calm - N/A Thunderstorm Clear
1:30 AM 75.2 °F - 71.6 °F 89% 30.04 in 10.0 mi Calm Calm - N/A   Clear
1:50 AM 75.2 °F - 71.6 °F 89% 30.04 in 10.0 mi Calm Calm - N/A   Clear
2:10 AM 75.2 °F - 71.6 °F 89% 30.03 in 10.0 mi Calm Calm - N/A   Clear
2:30 AM 75.2 °F - 71.6 °F 89% 30.03 in 10.0 mi Calm Calm - N/A   Clear
2:50 AM 75.2 °F - 71.6 °F 89% 30.02 in 10.0 mi Calm Calm - N/A   Clear
3:10 AM 75.2 °F - 71.6 °F 89% 30.02 in 10.0 mi Calm Calm - N/A   Clear
3:30 AM 77.0 °F - 71.6 °F 83% 30.02 in 10.0 mi Calm Calm - N/A   Clear
3:50 AM 77.0 °F - 71.6 °F 83% 30.02 in 10.0 mi Calm Calm - N/A   Clear
4:10 AM 77.0 °F - 71.6 °F 83% 30.03 in 10.0 mi Calm Calm - N/A   Clear
4:30 AM 75.2 °F - 71.6 °F 89% 30.03 in 10.0 mi Calm Calm - N/A   Scattered Clouds
4:50 AM 75.2 °F - 71.6 °F 89% 30.04 in 10.0 mi West 3.5 mph - N/A   Clear
5:10 AM 77.0 °F - 71.6 °F 83% 30.04 in 10.0 mi WSW 3.5 mph - N/A   Scattered Clouds
5:30 AM 77.0 °F - 71.6 °F 83% 30.04 in 10.0 mi West 3.5 mph - N/A   Clear
5:50 AM 77.0 °F - 71.6 °F 83% 30.04 in 10.0 mi Calm Calm - N/A   Clear
6:10 AM 75.2 °F - 71.6 °F 89% 30.05 in 10.0 mi Calm Calm - N/A   Scattered Clouds
6:30 AM 75.2 °F - 69.8 °F 83% 30.05 in 10.0 mi Calm Calm - N/A   Clear
6:50 AM 75.2 °F - 71.6 °F 89% 30.06 in 10.0 mi Calm Calm - N/A   Clear
7:10 AM 77.0 °F - 71.6 °F 83% 30.06 in 10.0 mi Calm Calm - N/A   Clear
7:30 AM 78.8 °F - 71.6 °F 78% 30.07 in 10.0 mi Calm Calm - N/A   Clear
7:50 AM 78.8 °F - 71.6 °F 78% 30.07 in 10.0 mi West 3.5 mph - N/A   Clear
8:10 AM 80.6 °F 84.6 °F 71.6 °F 74% 30.07 in 10.0 mi West 3.5 mph - N/A   Clear
8:30 AM 80.6 °F 83.9 °F 69.8 °F 70% 30.08 in 10.0 mi WNW 3.5 mph - N/A   Clear
8:50 AM 82.4 °F 86.3 °F 69.8 °F 66% 30.08 in 10.0 mi West 6.9 mph - N/A   Clear
9:10 AM 82.4 °F 87.2 °F 71.6 °F 70% 30.08 in 10.0 mi West 4.6 mph - N/A   Clear
9:30 AM 84.2 °F 89.6 °F 71.6 °F 66% 30.08 in 10.0 mi WNW 4.6 mph - N/A   Clear
9:50 AM 86.0 °F 90.4 °F 69.8 °F 58% 30.08 in 10.0 mi WSW 6.9 mph - N/A   Clear
10:10 AM 86.0 °F 91.8 °F 71.6 °F 62% 30.08 in 10.0 mi West 4.6 mph - N/A   Clear
10:30 AM 86.0 °F 91.8 °F 71.6 °F 62% 30.08 in 10.0 mi WSW 6.9 mph - N/A   Clear
10:50 AM 87.8 °F 93.8 °F 71.6 °F 58% 30.08 in 10.0 mi WSW 8.1 mph - N/A   Scattered Clouds
11:10 AM 87.8 °F 93.8 °F 71.6 °F 58% 30.08 in 10.0 mi West 6.9 mph - N/A   Scattered Clouds
11:30 AM 89.6 °F 94.7 °F 69.8 °F 52% 30.08 in 10.0 mi West 10.4 mph 17.3 mph N/A   Scattered Clouds
11:50 AM 89.6 °F 94.7 °F 69.8 °F 52% 30.08 in 10.0 mi West 10.4 mph - N/A   Scattered Clouds
12:10 PM 89.6 °F 93.4 °F 68.0 °F 49% 30.08 in 10.0 mi West 10.4 mph 16.1 mph N/A   Scattered Clouds
12:30 PM 91.4 °F 95.4 °F 68.0 °F 46% 30.08 in 10.0 mi WSW 10.4 mph 16.1 mph N/A   Scattered Clouds
12:50 PM 89.6 °F 93.4 °F 68.0 °F 49% 30.08 in 10.0 mi West 11.5 mph 16.1 mph N/A   Mostly Cloudy
1:10 PM 91.4 °F 95.4 °F 68.0 °F 46% 30.08 in 10.0 mi West 11.5 mph - N/A   Scattered Clouds
1:30 PM 91.4 °F 94.0 °F 66.2 °F 43% 30.07 in 10.0 mi WSW 15.0 mph - N/A   Mostly Cloudy
1:50 PM 91.4 °F 94.0 °F 66.2 °F 43% 30.06 in 10.0 mi West 12.7 mph 18.4 mph N/A   Mostly Cloudy
2:10 PM 93.2 °F 97.7 °F 68.0 °F 44% 30.06 in 10.0 mi WSW 12.7 mph 18.4 mph N/A   Scattered Clouds
2:30 PM 95.0 °F 99.5 °F 68.0 °F 41% 30.05 in 10.0 mi WSW 13.8 mph 17.3 mph N/A   Scattered Clouds
2:50 PM 91.4 °F 94.0 °F 66.2 °F 43% 30.04 in 10.0 mi West 8.1 mph 17.3 mph N/A   Scattered Clouds
3:10 PM 93.2 °F 96.2 °F 66.2 °F 41% 30.03 in 10.0 mi West 12.7 mph 16.1 mph N/A   Mostly Cloudy
3:30 PM 95.0 °F 97.0 °F 64.4 °F 36% 30.03 in 10.0 mi WNW 8.1 mph 19.6 mph N/A   Scattered Clouds
3:50 PM 95.0 °F 97.0 °F 64.4 °F 36% 30.02 in 10.0 mi West 12.7 mph 19.6 mph N/A   Scattered Clouds
4:10 PM 95.0 °F 97.0 °F 64.4 °F 36% 30.00 in 10.0 mi West 11.5 mph 16.1 mph N/A   Scattered Clouds
4:30 PM 95.0 °F 97.0 °F 64.4 °F 36% 30.00 in 10.0 mi WNW 9.2 mph - N/A   Scattered Clouds
4:50 PM 95.0 °F 96.0 °F 62.6 °F 34% 29.99 in 10.0 mi WNW 11.5 mph 20.7 mph N/A   Scattered Clouds
5:10 PM 95.0 °F 96.0 °F 62.6 °F 34% 30.00 in 10.0 mi West 12.7 mph 18.4 mph N/A   Mostly Cloudy
5:30 PM 95.0 °F 96.0 °F 62.6 °F 34% 30.00 in 10.0 mi West 16.1 mph 20.7 mph N/A   Scattered Clouds
5:50 PM 93.2 °F 94.1 °F 62.6 °F 36% 30.00 in 10.0 mi West 15.0 mph 18.4 mph N/A   Scattered Clouds
6:10 PM 93.2 °F 94.9 °F 64.4 °F 38% 30.00 in 10.0 mi West 8.1 mph - N/A   Scattered Clouds
6:30 PM 91.4 °F 93.2 °F 64.4 °F 41% 30.00 in 10.0 mi WNW 5.8 mph - N/A   Mostly Cloudy
6:50 PM 91.4 °F 93.2 °F 64.4 °F 41% 30.00 in 10.0 mi WNW 5.8 mph - N/A   Scattered Clouds
7:10 PM 91.4 °F 94.0 °F 66.2 °F 43% 30.00 in 10.0 mi WNW 3.5 mph - N/A   Clear
7:30 PM 89.6 °F 92.2 °F 66.2 °F 46% 30.00 in 10.0 mi Calm Calm - N/A   Clear
7:50 PM 89.6 °F 92.2 °F 66.2 °F 46% 30.00 in 10.0 mi Calm Calm - N/A   Clear
8:10 PM 86.0 °F 90.4 °F 69.8 °F 58% 30.01 in 10.0 mi Calm Calm - N/A   Clear
8:30 PM 84.2 °F 88.4 °F 69.8 °F 62% 30.02 in 10.0 mi Calm Calm - N/A   Clear
8:50 PM 82.4 °F 86.3 °F 69.8 °F 66% 30.03 in 10.0 mi Calm Calm - N/A   Scattered Clouds
9:10 PM 80.6 °F 84.6 °F 71.6 °F 74% 30.04 in 10.0 mi Calm Calm - N/A   Mostly Cloudy
9:30 PM 80.6 °F 83.9 °F 69.8 °F 70% 30.04 in 10.0 mi Calm Calm - N/A   Scattered Clouds
9:50 PM 80.6 °F 83.9 °F 69.8 °F 70% 30.05 in 10.0 mi Calm Calm - N/A   Scattered Clouds
10:10 PM 80.6 °F 83.9 °F 69.8 °F 70% 30.06 in 10.0 mi Calm Calm - N/A   Mostly Cloudy
10:30 PM 78.8 °F - 71.6 °F 78% 30.06 in 10.0 mi Calm Calm - N/A   Overcast
10:50 PM 78.8 °F - 73.4 °F 83% 30.06 in 10.0 mi Calm Calm - N/A   Mostly Cloudy
11:10 PM 78.8 °F - 73.4 °F 83% 30.06 in 10.0 mi Calm Calm - N/A   Clear
11:30 PM 77.0 °F - 73.4 °F 89% 30.06 in 10.0 mi Calm Calm - N/A   Clear
11:50 PM 77.0 °F - 71.6 °F 83% 30.07 in 10.0 mi West 3.5 mph - N/A Thunderstorm Clear